Погода в Кунтики

Погода в Кунтики : погода сейчас, прогноз погоды и архив. Всё, что Вы хотите узнать о погоде в Кунтики!

Хотите узнать прогноз погоды в Кунтики? Тогда Вам сюда: Погода в Кунтики

Поиск расширенной информации на нашем сайте:

Другие новости

Новости СМИ2

Главная страница сайта

Новости сайта

02.10.2013

Напоминаем, что на нашем новом сайте вы можете получить высокодетализированные прогнозы погоды по пунктам России, СНГ и мира (включающие важные для авиации метеовеличины, такие как направление и скорость ветра, видимость, явления погоды, количество и форма облачности, нижняя и верхняя граница облачности), а также ознакомиться с разнообразными материалами по авиационной метеорологии и подборкой полезных ссылок на эту тему.

Сайт Метеоцентр.Азия посвящён разработке технологий оптимизации авиаметеорологического обслуживания, включая проектирование и перспективное создание нескольких автоматизированных авиаметеорологических систем:
- система выпуска высокодетальных прогностических карт явлений погоды для нижнего воздушного пространства по России и ближнему зарубежью;
- система верификации прогнозов TAF (выпускаемых синоптиками официальных АМСГ РФ и ближнего зарубежья) и AUTOTAF (выпускаемых сайтом Метеоцентр.Азия) - выявление ошибок, онлайн-сопоставление с фактической погодой METAR, автоматическое внесение коррективов в прогнозы при резком отклонении фактической погоды от прогноза, подсчёт оправдываемости прогнозов по элементам и в целом;
- система обработки, анализа и отображения авиаметеорологической информации для применения провайдерами метеорологической информации.

Рекомендуем: Прокат и аренда авто кемерово.

Погода в Кунтики - сегодня

Время (UTC), дата Ветер
(°,м/с) 
Видим.   Явления Облачность Т
(°С)
Тd
(°С)
f(%) Тe
(°С)
Pmin
(гПа)
dP
(гПа)
Po
(мм)
O2
(г/м3)
Тmin Tmax R s Состояние
почвы
09 26.05.17 290 (З) 5{10}  20000 м    8/8 1320 м 
[Sc diur, vesp]
+9.7 -3.3 40 +8  1022.6  0.6  760  296           
12 26.05.17 240 (ЮЗ) 3{10}  20000 м    8/1 1000 м верхняя 
[Cu hum|Ci sp]
+12.1 -3.9 32 +12  1022.5  760  293    +12.1  0.0     
15 26.05.17 130 (ЮВ) 20000 м    8/0 средняя, верхняя 
[Ac trans|Cc]
+10 -0.8 47 +11  1021.8  -0.8  759  295           
18 26.05.17 150 (ЮВ) 20000 м    8/0 средняя, верхняя 
[Ac trans|Cc]
+7.6 -1.8 51 +8  1021.2  -0.6  758  298           
21 26.05.17 150 (ЮВ) 20000 м    10/0 средняя 
[Ac und]
+7.4 -1.8 52 +7  1019.5  -1.8  757  297           
00 27.05.17 170 (Ю) 20000 м    10/5 300 м кучево-дожд., средняя, верхняя 
[Cb cap|Ac trans|Ci fib]
+9.6 -2.4 43 +9  1017.3  -2  756  294  +7.1        сухая 
03 27.05.17 180 (Ю) 20000 м  {ливн. осадки}  10/3 600 м кучево-дожд., средняя, верхняя 
[Cb cap|Ac trans|Ci sp]
+12.1 -0.6 41 +11  1015.9  -1.4  755  291           
12 27.05.17 200 (Ю) 5{13}  20000 м    6/3 600 м верхняя 
[Cu med, cong|Ci fib]
+25.1 +1.5 21 +25  1010.7  -1  751  277    +25.5  0.0     
15 27.05.17 180 (Ю) 3{11}  20000 м    10/0 верхняя 
[Ci]
+21.1 +2.7 30 +21  1010.5  -0.3  751  280           
18 27.05.17 170 (Ю) 20000 м    9/0 средняя, верхняя 
[Ac lent|Cs]
+16.6 -0 32 +17  1010.1  -0.5  750  285           
21 27.05.17 150 (ЮВ) 20000 м    10/0 средняя, верхняя 
[Ac lent|Cs]
+13.7 +0.8 41 +14  1009.1  -1.1  750  287           
00 28.05.17 150 (ЮВ) 20000 м    10/0 средняя, верхняя 
[Ac trans|Cc]
+11.9 +1.6 49 +12  1007.6  -1.6  748  289  +11.3        сухая 
03 28.05.17 140 (ЮВ) 20000 м    8/0 средняя, верхняя 
[Ac lent|Ci fib]
+18.8 +1.1 30 +19  1005.1  -2.3  747  281           
06 28.05.17 140 (ЮВ) 5{11}  20000 м    10/0 средняя, верхняя 
[Ac trans|Ci sp]
+20.7 +0.1 25 +21  1002.9  -2  745  279           
12 28.05.17 130 (ЮВ) 5-11{13}  20000 м    8/0 средняя, верхняя 
[Ac cast|Ci fib]
+22.9 +0.2 22 +23  998.3  -2.7  742  276    +23.6       
15 28.05.17 080 (В) 20000 м    10/8 600 м кучево-дожд., верхняя 
[Cb cap|Ci sp]
+19.6 +3.2 34 +20  995.8  -2.5  740  278           
18 28.05.17 130 (ЮВ) 20000 м  {гроза}  6/0 средняя, верхняя 
[Ac trans|Ci fib]
+17.8 +4.2 40 +18  993.5  -2.4  738  279           
21 28.05.17 220 (ЮЗ) 20000 м    3/0 средняя, верхняя 
[Ac cast|Ci]
+12.8 +8.4 75 +13  994.6  0.9  739  283           
00 29.05.17 190 (Ю) 4000 м  слаб. ливневой дождь  10/5 600 м кучево-дожд., средняя 
[Cb cap|Ac trans]
+12.1 +10.5 90 +14  996.4  1.8  740  284  +11.1    0.0    влажная 
09 29.05.17 240 (ЮЗ) 20000 м    8/5 600 м средняя, верхняя 
[Sc diur, vesp|Ac cuf|Ci fib]
+17.1 +8.9 58 +17  1001.8  1.3  744  281           
12 29.05.17 300 (СЗ) 20000 м    9/5 1000 м средняя, верхняя 
[Sc diur, vesp|Ac trans|Cc]
+16.5 +8.2 58 +17  1001.7  744  281    +18.1  0.0     
15 29.05.17 340 (С) 20000 м    10/3 600 м кучево-дожд., средняя, верхняя 
[Cb calv|Ac cast|Ci sp]
+12.2 +7.6 73 +11  1001.6  -0.3  744  286           
18 29.05.17 360 (С) 20000 м    10/4 600 м кучево-дожд., средняя, верхняя 
[Cb calv|Ac cuf|Ci sp]
+9.5 +6.4 81 +10  1000.5  -1.2  743  288           
21 29.05.17 340 (С) 20000 м    10/10 450 м 
[Sc]
+9.5 +6.8 83 +9  998  -2.4  741  287           
00 30.05.17 020 (С) 20000 м    10/10 270 м 
[Sc]
+10.5 +8.4 87 +11  996.7  -1.3  740  286  +9.4        сухая 
Время (UTC), дата Ветер
(°,м/с) 
Видим.   Явления Облачность Т
(°С)
Тd
(°С)
f(%) Тe
(°С)
Pmin
(гПа)
dP
(гПа)
Po
(мм)
O2
(г/м3)
Тmin Tmax R s Состояние
почвы

Для получения пояснительной информации подведите курсор к названию столбца.

ПОГОДА в Кунтики - архив

Всё, что Вы хотите узнать о погоде в Кунтики - удобно и подробно!

Выберите нужную дату (начиная с 1 января 2015* года) и нажмите кнопку "Найти".
Будут отображены архивные сводки погоды по пункту Кунтики, начиная с указанной даты.


Отображать данные в формате CSV (для использования в таблицах Excel)


Внимание! Наш архив погоды предназначен исключительно для личного некоммерческого использования в познавательных целях. Если Вам необходимы официальные справки о состоянии погоды (для производственных, юридических, коммерческих и т.п. целей), обращайтесь в органы Росгидромета.

*Примечание: данная дата относится к архиву по метеостанциям СССР (Россия, СНГ, Балтия).
Архив по метеостанциям Зарубежной Европы и Азии (кроме Китая) хранится 10 дней, по другим регионам земного шара (Китай, Африка, Америка, Австралия, Океания) - 1 день.

Кунтики - район местоположения метеостанции


Название, широта, долгота, высота метеостанции:
Кунтики 58.4°ш. 76.4°д. 81 м над ур. моря [Российская Федерация]

Дополнительная информация

В oтличие oт бoльшинства пoгoдных сайтoв мы публикуем пoдрoбную метеoинфoрмацию в детальнoм прoфессиoнальнoм фoрмате.

Характеристики температуры и влажнoсти вoздуха измеряются на высoте 2 м в тени вдали oт зданий и деревьев.
Скoрoсть ветра измеряется на высoте 10 м (на урoвне рoста челoвека скoрoсть ветра ниже в 1.5-2 раза). Если метеoстанция нахoдится в гoрoде или в лесу, тo скoрoсть ветра занижена на 2-4 м/с пo сравнению с oткрытым местoм. Скoрoсть ветра над акватoриями крупных рек и oзёр, а также на вершинах хoлмoв на 2-5 м/с выше, чем в oбычных услoвиях.
Атмoсфернoе давление в разных тoчках местнoсти мoжет значительнo oтличаться oт давления на метеoстанции, в зависимoсти oт услoвий рельефа (при пoдъёме на 10 м давление пoнижается примернo на 1 мм рт.ст.).